Weather History for Washington, IA

Change the Weather History Date:

Sunday, April 21, 2013

  Actual Average Record
Temperature  
Mean Temperature 48 °F -  
Max Temperature 62 °F 63 °F 82 °F (2001)
Min Temperature 35 °F 41 °F 30 °F (2012)
Degree Days  
Heating Degree Days 16    
Moisture  
Dew Point 40 °F    
Average Humidity 68    
Maximum Humidity 87    
Minimum Humidity 52    
Precipitation  
Precipitation 0.00 in - - ()
Sea Level Pressure  
Sea Level Pressure 30.27 in    
Wind  
Wind Speed 15 mph (SSE)    
Max Wind Speed 24 mph    
Max Gust Speed 31 mph    
Visibility 10 miles    
Events      
Averages and records for this station are not official NWS values.
T = Trace of Precipitation, MM = Missing Value Source: NWS Daily Summary

Daily Weather History Graph

Daily Weather History Graph

Search for Another Location

Airport:

Trip Planner

Search our weather history database for the weather conditions in past years. The results will help you decide how hot, cold, wet, or windy it might be!

Date:

Astronomy

Apr. 21, 2013 Rise Set
Actual Time 6:17 AM CDT 7:53 PM CDT
Civil Twilight 5:48 AM CDT 8:22 PM CDT
Nautical Twilight 5:13 AM CDT 8:58 PM CDT
Astronomical Twilight 4:36 AM CDT 9:35 PM CDT
Moon 3:36 PM CDT (4/21) 3:42 AM CDT (4/21)
Length of Visible Light 14h 34m
Length of Day
13h 35m
Waxing Gibbous, 80% of the Moon is Illuminated
Apr 21
Waxing Gibbous
Apr 25
Full
May 2
Last Quarter
May 9
New
May 17
First Quarter

Hourly Weather History & Observations

Time (CDT) Temp. Windchill Dew Point Humidity Pressure Visibility Wind Dir Wind Speed Gust Speed Precip Events Conditions
12:15 AM 35.6 °F 28.6 °F 30.2 °F 81% 30.33 in 10.0 mi ESE 9.2 mph - N/A   Clear
12:35 AM 35.6 °F 29.2 °F 30.2 °F 81% 30.33 in 10.0 mi ESE 8.1 mph - N/A   Clear
12:55 AM 35.6 °F 28.6 °F 30.2 °F 81% 30.32 in 10.0 mi East 9.2 mph - N/A   Clear
1:15 AM 35.6 °F 29.2 °F 32.0 °F 87% 30.32 in 10.0 mi ESE 8.1 mph - N/A   Clear
1:35 AM 37.4 °F 30.3 °F 32.0 °F 81% 30.32 in 10.0 mi ESE 10.4 mph - N/A   Clear
4:15 AM 39.2 °F 30.8 °F 33.8 °F 81% 30.30 in 10.0 mi SE 15.0 mph - N/A   Scattered Clouds
4:35 AM 39.2 °F 30.8 °F 33.8 °F 81% 30.30 in 10.0 mi SE 15.0 mph - N/A   Mostly Cloudy
4:55 AM 39.2 °F 31.2 °F 33.8 °F 81% 30.31 in 10.0 mi SE 13.8 mph - N/A   Overcast
5:15 AM 39.2 °F 30.8 °F 33.8 °F 81% 30.31 in 10.0 mi SSE 15.0 mph - N/A   Overcast
5:35 AM 39.2 °F 30.5 °F 33.8 °F 81% 30.31 in 10.0 mi SSE 16.1 mph - N/A   Mostly Cloudy
5:55 AM 39.2 °F 30.5 °F 33.8 °F 81% 30.31 in 10.0 mi SE 16.1 mph - N/A   Scattered Clouds
6:15 AM 39.2 °F 32.0 °F 33.8 °F 81% 30.33 in 10.0 mi SE 11.5 mph 15.0 mph N/A   Mostly Cloudy
6:35 AM 39.2 °F 32.0 °F 33.8 °F 81% 30.35 in 10.0 mi SE 11.5 mph - N/A   Overcast
6:55 AM 39.2 °F 31.6 °F 33.8 °F 81% 30.35 in 10.0 mi SE 12.7 mph - N/A   Overcast
7:15 AM 41.0 °F 33.5 °F 33.8 °F 76% 30.35 in 10.0 mi SE 13.8 mph 17.3 mph N/A   Overcast
7:35 AM 41.0 °F 33.9 °F 33.8 °F 76% 30.36 in 10.0 mi SE 12.7 mph 17.3 mph N/A   Mostly Cloudy
7:55 AM 41.0 °F 32.5 °F 33.8 °F 76% 30.35 in 10.0 mi SE 17.3 mph 20.7 mph N/A   Mostly Cloudy
8:15 AM 42.8 °F 35.1 °F 35.6 °F 76% 30.35 in 10.0 mi SE 16.1 mph 24.2 mph N/A   Scattered Clouds
8:35 AM 42.8 °F 34.8 °F 35.6 °F 76% 30.35 in 10.0 mi SE 17.3 mph 25.3 mph N/A   Scattered Clouds
8:55 AM 44.6 °F 36.6 °F 35.6 °F 71% 30.34 in 10.0 mi SE 19.6 mph 24.2 mph N/A   Scattered Clouds
9:15 AM 44.6 °F 35.7 °F 35.6 °F 71% 30.33 in 10.0 mi SE 24.2 mph 28.8 mph N/A   Scattered Clouds
9:35 AM 44.6 °F 36.4 °F 35.6 °F 71% 30.33 in 10.0 mi SSE 20.7 mph 28.8 mph N/A   Scattered Clouds
9:55 AM 44.6 °F 35.9 °F 35.6 °F 71% 30.33 in 10.0 mi SSE 23.0 mph 26.5 mph N/A   Mostly Cloudy
10:15 AM 48.2 °F - 37.4 °F 66% 30.33 in 10.0 mi SE 20.7 mph 26.5 mph N/A   Scattered Clouds
10:35 AM 50.0 °F - 37.4 °F 62% 30.33 in 10.0 mi SSE 21.9 mph 27.6 mph N/A   Scattered Clouds
10:55 AM 48.2 °F - 37.4 °F 66% 30.33 in 10.0 mi SSE 18.4 mph 26.5 mph N/A   Overcast
11:15 AM 53.6 °F - 39.2 °F 58% 30.32 in 10.0 mi South 19.6 mph 26.5 mph N/A   Mostly Cloudy
11:35 AM 53.6 °F - 39.2 °F 58% 30.31 in 10.0 mi SSE 20.7 mph 31.1 mph N/A   Mostly Cloudy
11:55 AM 53.6 °F - 41.0 °F 62% 30.31 in 10.0 mi SSE 21.9 mph 25.3 mph N/A   Scattered Clouds
12:15 PM 55.4 °F - 41.0 °F 58% 30.30 in 10.0 mi SSE 21.9 mph 26.5 mph N/A   Scattered Clouds
12:35 PM 55.4 °F - 41.0 °F 58% 30.29 in 10.0 mi SSE 19.6 mph 24.2 mph N/A   Scattered Clouds
12:55 PM 55.4 °F - 42.8 °F 63% 30.29 in 10.0 mi SSE 17.3 mph 26.5 mph N/A   Scattered Clouds
1:15 PM 57.2 °F - 42.8 °F 59% 30.27 in 10.0 mi SSE 17.3 mph 23.0 mph N/A   Scattered Clouds
1:35 PM 59.0 °F - 44.6 °F 59% 30.27 in 10.0 mi South 16.1 mph 21.9 mph N/A   Scattered Clouds
1:55 PM 59.0 °F - 44.6 °F 59% 30.25 in 10.0 mi SSE 18.4 mph 23.0 mph N/A   Scattered Clouds
2:15 PM 60.8 °F - 44.6 °F 55% 30.25 in 10.0 mi SSE 17.3 mph 23.0 mph N/A   Clear
2:35 PM 60.8 °F - 44.6 °F 55% 30.24 in 10.0 mi SSE 17.3 mph 23.0 mph N/A   Clear
2:55 PM 62.6 °F - 44.6 °F 52% 30.23 in 10.0 mi SSE 18.4 mph 25.3 mph N/A   Clear
3:15 PM 62.6 °F - 44.6 °F 52% 30.22 in 10.0 mi SSE 20.7 mph 26.5 mph N/A   Clear
3:35 PM 62.6 °F - 46.4 °F 55% 30.21 in 10.0 mi SSE 19.6 mph 24.2 mph N/A   Clear
3:55 PM 62.6 °F - 46.4 °F 55% 30.21 in 10.0 mi SSE 17.3 mph - N/A   Clear
4:15 PM 62.6 °F - 46.4 °F 55% 30.20 in 10.0 mi South 19.6 mph 25.3 mph N/A   Clear
4:35 PM 62.6 °F - 46.4 °F 55% 30.20 in 10.0 mi SSE 16.1 mph 24.2 mph N/A   Clear
4:55 PM 62.6 °F - 46.4 °F 55% 30.19 in 10.0 mi South 15.0 mph 24.2 mph N/A   Clear
5:15 PM 62.6 °F - 44.6 °F 52% 30.19 in 10.0 mi SSE 17.3 mph 25.3 mph N/A   Scattered Clouds
5:35 PM 62.6 °F - 46.4 °F 55% 30.19 in 10.0 mi SSE 15.0 mph - N/A   Scattered Clouds
5:55 PM 62.6 °F - 46.4 °F 55% 30.18 in 10.0 mi SSE 19.6 mph 24.2 mph N/A   Scattered Clouds
6:15 PM 62.6 °F - 46.4 °F 55% 30.18 in 10.0 mi SSE 20.7 mph 25.3 mph N/A   Clear
6:35 PM 60.8 °F - 46.4 °F 59% 30.18 in 10.0 mi SSE 21.9 mph 27.6 mph N/A   Mostly Cloudy
6:55 PM 59.0 °F - 46.4 °F 63% 30.18 in 10.0 mi SSE 16.1 mph - N/A   Overcast
7:15 PM 59.0 °F - 46.4 °F 63% 30.18 in 10.0 mi SSE 16.1 mph - N/A   Overcast
7:35 PM 57.2 °F - 46.4 °F 67% 30.19 in 10.0 mi SSE 13.8 mph - N/A   Mostly Cloudy
7:55 PM 55.4 °F - 46.4 °F 72% 30.19 in 10.0 mi SSE 15.0 mph - N/A   Scattered Clouds
8:15 PM 55.4 °F - 44.6 °F 67% 30.20 in 10.0 mi SSE 13.8 mph - N/A   Scattered Clouds
8:35 PM 53.6 °F - 44.6 °F 72% 30.20 in 10.0 mi SSE 15.0 mph - N/A   Scattered Clouds
8:55 PM 53.6 °F - 44.6 °F 72% 30.20 in 10.0 mi SSE 13.8 mph 18.4 mph N/A   Mostly Cloudy
9:15 PM 53.6 °F - 44.6 °F 72% 30.21 in 10.0 mi SSE 16.1 mph 21.9 mph N/A   Mostly Cloudy
9:35 PM 53.6 °F - 44.6 °F 72% 30.21 in 10.0 mi SSE 15.0 mph - N/A   Scattered Clouds
9:55 PM 53.6 °F - 44.6 °F 72% 30.21 in 10.0 mi SSE 15.0 mph - N/A   Scattered Clouds
10:15 PM 51.8 °F - 44.6 °F 76% 30.21 in 10.0 mi SSE 17.3 mph - N/A   Scattered Clouds
10:35 PM 51.8 °F - 44.6 °F 76% 30.21 in 10.0 mi SSE 17.3 mph - N/A   Scattered Clouds
10:55 PM 51.8 °F - 44.6 °F 76% 30.21 in 10.0 mi SSE 17.3 mph 25.3 mph N/A   Mostly Cloudy
11:15 PM 51.8 °F - 44.6 °F 76% 30.21 in 10.0 mi SSE 16.1 mph - N/A   Scattered Clouds
11:35 PM 51.8 °F - 44.6 °F 76% 30.20 in 10.0 mi SSE 13.8 mph - N/A   Mostly Cloudy
11:55 PM 51.8 °F - 44.6 °F 76% 30.20 in 10.0 mi SSE 15.0 mph - N/A   Overcast